| time (UTC) | temp F | wind direction | speed MPH | gust MPH | rain 1hr in | rain 24hr in | rain mn in | humidity % | barometer mb |
| 20260903012017 | 66 | 180 | 3.0 | 6.0 | 0.00 | 0.00 | 0.00 | 82 | 1019.1 |
| 20260903011017 | 66 | 158 | 3.0 | 7.0 | 0.00 | 0.00 | 0.00 | 82 | 1019.3 |
| 20260903010017 | 66 | 180 | 2.0 | 8.0 | 0.00 | 0.00 | 0.00 | 81 | 1019.3 |
| 20260903005017 | 66 | 158 | 2.0 | 7.0 | 0.00 | 0.00 | 0.00 | 80 | 1019.1 |
| 20260903004017 | 66 | 158 | 2.0 | 6.0 | 0.00 | 0.00 | 0.00 | 80 | 1019.3 |
| 20260903003017 | 66 | 180 | 2.0 | 6.0 | 0.00 | 0.00 | 0.00 | 79 | 1019.4 |
| 20260903002017 | 66 | 158 | 3.0 | 8.0 | 0.00 | 0.00 | 0.00 | 78 | 1019.5 |
| 20260903001017 | 67 | 180 | 3.0 | 6.0 | 0.00 | 0.00 | 0.00 | 77 | 1019.4 |
| 20260903000017 | 67 | 135 | 1.0 | 4.0 | 0.00 | 0.00 | 0.00 | 76 | 1019.8 |
| 20260902235017 | 67 | 158 | 2.0 | 4.0 | 0.00 | 0.00 | 0.00 | 75 | 1020.0 |
| 20260902234057 | 68 | 135 | 2.0 | 4.0 | 0.00 | 0.00 | 0.00 | 74 | 1020.0 |
| 20260902233017 | 68 | 158 | 3.0 | 5.0 | 0.00 | 0.00 | 0.00 | 73 | 1020.0 |
| 20260902232017 | 68 | 158 | 2.0 | 7.0 | 0.00 | 0.00 | 0.00 | 72 | 1020.2 |
| 20260902231017 | 68 | 135 | 3.0 | 9.0 | 0.00 | 0.00 | 0.00 | 70 | 1020.0 |
| 20260902230017 | 69 | 158 | 4.0 | 11.0 | 0.00 | 0.00 | 0.00 | 69 | 1020.1 |
| 20260902225017 | 69 | 158 | 3.0 | 9.0 | 0.00 | 0.00 | 0.00 | 68 | 1020.2 |
| 20260902224017 | 69 | 135 | 3.0 | 8.0 | 0.00 | 0.00 | 0.00 | 67 | 1020.3 |
| 20260902223117 | 70 | 158 | 3.0 | 5.0 | 0.00 | 0.00 | 0.00 | 66 | 1020.4 |
| 20260902222017 | 70 | 158 | 2.0 | 6.0 | 0.00 | 0.00 | 0.00 | 65 | 1020.6 |
| 20260902221017 | 70 | 158 | 2.0 | 7.0 | 0.00 | 0.00 | 0.00 | 64 | 1020.4 |
| 20260902220017 | 70 | 135 | 4.0 | 9.0 | 0.00 | 0.00 | 0.00 | 62 | 1020.4 |
| 20260902215017 | 70 | 158 | 4.0 | 10.0 | 0.00 | 0.00 | 0.00 | 63 | 1020.2 |
| 20260902214017 | 71 | 180 | 3.0 | 9.0 | 0.00 | 0.00 | 0.00 | 62 | 1020.3 |
| 20260902213017 | 71 | 135 | 3.0 | 7.0 | 0.00 | 0.00 | 0.00 | 61 | 1020.4 |
| 20260902212037 | 71 | 135 | 4.0 | 10.0 | 0.00 | 0.00 | 0.00 | 62 | 1020.2 |
| 20260902211037 | 72 | 180 | 3.0 | 10.0 | 0.00 | 0.00 | 0.00 | 65 | 1019.9 |
| 20260902210017 | 72 | 158 | 3.0 | 10.0 | 0.00 | 0.00 | 0.00 | 65 | 1020.0 |
| 20260902205017 | 72 | 158 | 4.0 | 12.0 | 0.00 | 0.00 | 0.00 | 63 | 1020.3 |
| 20260902204017 | 72 | 158 | 3.0 | 7.0 | 0.00 | 0.00 | 0.00 | 63 | 1020.4 |
| 20260902203017 | 72 | 158 | 3.0 | 9.0 | 0.00 | 0.00 | 0.00 | 63 | 1020.5 |
| 20260902202017 | 73 | 158 | 4.0 | 10.0 | 0.00 | 0.00 | 0.00 | 63 | 1020.7 |
| 20260902201016 | 73 | 113 | 3.0 | 10.0 | 0.00 | 0.00 | 0.00 | 60 | 1020.9 |
| 20260902200036 | 73 | 203 | 3.0 | 9.0 | 0.00 | 0.00 | 0.00 | 62 | 1020.8 |
| 20260902195017 | 73 | 158 | 3.0 | 8.0 | 0.00 | 0.00 | 0.00 | 60 | 1020.9 |
| 20260902194016 | 73 | 158 | 4.0 | 10.0 | 0.00 | 0.01 | 0.00 | 61 | 1020.9 |
| 20260902193016 | 73 | 158 | 3.0 | 8.0 | 0.00 | 0.01 | 0.00 | 59 | 1021.0 |
| 20260902192017 | 73 | 158 | 3.0 | 8.0 | 0.00 | 0.01 | 0.00 | 58 | 1021.1 |
| 20260902191036 | 73 | 158 | 4.0 | 9.0 | 0.00 | 0.03 | 0.00 | 56 | 1021.1 |
| 20260902190036 | 73 | 158 | 4.0 | 12.0 | 0.00 | 0.04 | 0.00 | 55 | 1020.9 |
| 20260902185037 | 74 | 135 | 4.0 | 9.0 | 0.00 | 0.07 | 0.00 | 56 | 1021.1 |
| 20260902184016 | 74 | 180 | 4.0 | 11.0 | 0.00 | 0.14 | 0.00 | 57 | 1021.2 |
| 20260902183016 | 74 | 180 | 4.0 | 9.0 | 0.00 | 0.21 | 0.00 | 58 | 1021.0 |
| 20260902182016 | 74 | 158 | 3.0 | 10.0 | 0.00 | 0.22 | 0.00 | 62 | 1020.9 |
| 20260902181016 | 74 | 180 | 3.0 | 10.0 | 0.00 | 0.22 | 0.00 | 63 | 1020.9 |
| 20260902180016 | 73 | 113 | 3.0 | 11.0 | 0.00 | 0.23 | 0.00 | 63 | 1021.0 |
| 20260902175016 | 74 | 180 | 3.0 | 9.0 | 0.00 | 0.23 | 0.00 | 63 | 1021.0 |
| 20260902174036 | 74 | 158 | 3.0 | 7.0 | 0.00 | 0.23 | 0.00 | 62 | 1021.0 |
| 20260902173036 | 74 | 113 | 3.0 | 7.0 | 0.00 | 0.23 | 0.00 | 64 | 1021.1 |
| 20260902172016 | 74 | 158 | 4.0 | 9.0 | 0.00 | 0.25 | 0.00 | 62 | 1021.1 |
| 20260902171016 | 75 | 158 | 3.0 | 8.0 | 0.00 | 0.26 | 0.00 | 62 | 1021.2 |
| 20260902170016 | 74 | 158 | 4.0 | 10.0 | 0.00 | 0.27 | 0.00 | 62 | 1021.2 |
| 20260902165016 | 74 | 158 | 4.0 | 10.0 | 0.00 | 0.28 | 0.00 | 64 | 1021.3 |
| 20260902164016 | 74 | 158 | 3.0 | 12.0 | 0.00 | 0.28 | 0.00 | 64 | 1021.4 |
| 20260902163016 | 74 | 180 | 2.0 | 12.0 | 0.00 | 0.28 | 0.00 | 66 | 1021.5 |
| 20260902162016 | 73 | 158 | 4.0 | 8.0 | 0.00 | 0.28 | 0.00 | 67 | 1021.6 |
| 20260902161016 | 72 | 158 | 3.0 | 9.0 | 0.00 | 0.28 | 0.00 | 70 | 1021.7 |
| 20260902160016 | 72 | 158 | 3.0 | 8.0 | 0.00 | 0.28 | 0.00 | 70 | 1021.7 |
| 20260902155016 | 72 | 158 | 3.0 | 9.0 | 0.00 | 0.28 | 0.00 | 73 | 1021.8 |
| 20260902154016 | 72 | 158 | 3.0 | 8.0 | 0.00 | 0.28 | 0.00 | 74 | 1022.0 |
| 20260902153017 | 72 | 158 | 3.0 | 8.0 | 0.00 | 0.28 | 0.00 | 73 | 1022.2 |
| 20260902152036 | 71 | 158 | 4.0 | 9.0 | 0.00 | 0.28 | 0.00 | 74 | 1022.2 |
| 20260902151016 | 71 | 113 | 2.0 | 8.0 | 0.00 | 0.28 | 0.00 | 75 | 1022.2 |
| 20260902150016 | 71 | 113 | 1.0 | 5.0 | 0.00 | 0.28 | 0.00 | 78 | 1022.2 |
| 20260902145016 | 70 | 158 | 2.0 | 7.0 | 0.00 | 0.28 | 0.00 | 80 | 1022.2 |
| 20260902144016 | 69 | 135 | 1.0 | 3.0 | 0.00 | 0.28 | 0.00 | 83 | 1022.0 |
| 20260902143016 | 69 | 113 | 1.0 | 5.0 | 0.00 | 0.28 | 0.00 | 84 | 1022.0 |
| 20260902142016 | 68 | 135 | 1.0 | 4.0 | 0.00 | 0.28 | 0.00 | 86 | 1022.1 |
| 20260902141016 | 68 | 180 | 1.0 | 8.0 | 0.00 | 0.28 | 0.00 | 89 | 1021.8 |
| 20260902140016 | 67 | 158 | 1.0 | 5.0 | 0.00 | 0.28 | 0.00 | 91 | 1021.4 |
| 20260902135036 | 66 | 158 | 1.0 | 7.0 | 0.00 | 0.28 | 0.00 | 92 | 1021.5 |
| 20260902134016 | 66 | 180 | 2.0 | 6.0 | 0.00 | 0.28 | 0.00 | 94 | 1021.4 |
| 20260902133016 | 66 | 158 | 2.0 | 6.0 | 0.00 | 0.29 | 0.00 | 95 | 1021.4 |
| 20260902132016 | 65 | 0.0 | 3.0 | 0.00 | 0.29 | 0.00 | 96 | 1021.4 | |
| 20260902131036 | 64 | 68 | 1.0 | 4.0 | 0.00 | 0.29 | 0.00 | 96 | 1021.6 |
| 20260902130016 | 64 | 203 | 1.0 | 4.0 | 0.00 | 0.30 | 0.00 | 96 | 1021.6 |
| 20260902125036 | 63 | 315 | 1.0 | 5.0 | 0.00 | 0.31 | 0.00 | 96 | 1021.6 |
| 20260902124016 | 63 | 0 | 1.0 | 3.0 | 0.00 | 0.33 | 0.00 | 96 | 1021.7 |
| 20260902123036 | 63 | 90 | 1.0 | 3.0 | 0.00 | 0.37 | 0.00 | 96 | 1021.7 |
| 20260902122016 | 63 | 68 | 1.0 | 3.0 | 0.00 | 0.39 | 0.00 | 96 | 1021.8 |
| 20260902121056 | 63 | 45 | 1.0 | 3.0 | 0.00 | 0.40 | 0.00 | 96 | 1021.9 |
| 20260902120016 | 62 | 0.0 | 0.0 | 0.00 | 0.40 | 0.00 | 96 | 1021.9 | |
| 20260902115036 | 62 | 0.0 | 1.0 | 0.00 | 0.40 | 0.00 | 96 | 1021.9 | |
| 20260902114016 | 62 | 0.0 | 1.0 | 0.00 | 0.40 | 0.00 | 96 | 1022.0 | |
| 20260902113016 | 62 | 0.0 | 2.0 | 0.00 | 0.40 | 0.00 | 96 | 1022.0 | |
| 20260902112016 | 62 | 0.0 | 2.0 | 0.00 | 0.40 | 0.00 | 96 | 1021.8 | |
| 20260902111016 | 62 | 0.0 | 0.0 | 0.00 | 0.40 | 0.00 | 96 | 1021.7 | |
| 20260902110016 | 62 | 0.0 | 0.0 | 0.00 | 0.40 | 0.00 | 96 | 1021.7 | |
| 20260902105016 | 62 | 0.0 | 0.0 | 0.00 | 0.40 | 0.00 | 96 | 1021.5 | |
| 20260902104056 | 62 | 0.0 | 0.0 | 0.00 | 0.40 | 0.00 | 96 | 1021.3 | |
| 20260902103035 | 62 | 0.0 | 0.0 | 0.00 | 0.40 | 0.00 | 96 | 1021.1 | |
| 20260902102016 | 62 | 0.0 | 0.0 | 0.00 | 0.40 | 0.00 | 96 | 1021.2 | |
| 20260902101036 | 62 | 0.0 | 0.0 | 0.00 | 0.41 | 0.00 | 96 | 1021.0 | |
| 20260902100036 | 61 | 0.0 | 0.0 | 0.00 | 0.41 | 0.00 | 96 | 1021.0 | |
| 20260902095016 | 61 | 0.0 | 0.0 | 0.00 | 0.41 | 0.00 | 96 | 1020.9 | |
| 20260902094016 | 61 | 0.0 | 0.0 | 0.00 | 0.42 | 0.00 | 96 | 1020.7 | |
| 20260902093036 | 61 | 0.0 | 0.0 | 0.00 | 0.42 | 0.00 | 96 | 1020.7 | |
| 20260902092015 | 61 | 0.0 | 0.0 | 0.00 | 0.42 | 0.00 | 96 | 1020.6 | |
| 20260902091015 | 61 | 0.0 | 0.0 | 0.00 | 0.42 | 0.00 | 96 | 1020.4 | |
| 20260902090016 | 61 | 0.0 | 0.0 | 0.00 | 0.42 | 0.00 | 96 | 1020.4 | |
| 20260902085015 | 62 | 0.0 | 0.0 | 0.00 | 0.42 | 0.00 | 96 | 1020.4 | |
| 20260902084015 | 62 | 0.0 | 1.0 | 0.00 | 0.42 | 0.00 | 96 | 1020.2 | |
| 20260902083015 | 62 | 0.0 | 4.0 | 0.00 | 0.42 | 0.00 | 96 | 1020.2 | |
| 20260902082016 | 62 | 0 | 1.0 | 4.0 | 0.00 | 0.42 | 0.00 | 96 | 1020.4 |
| 20260902081015 | 62 | 338 | 1.0 | 3.0 | 0.00 | 0.42 | 0.00 | 96 | 1020.7 |
| 20260902080015 | 62 | 338 | 1.0 | 3.0 | 0.00 | 0.42 | 0.00 | 96 | 1020.6 |
| 20260902075015 | 62 | 270 | 1.0 | 3.0 | 0.00 | 0.42 | 0.00 | 96 | 1020.5 |
| 20260902074015 | 62 | 0.0 | 0.0 | 0.00 | 0.42 | 0.00 | 96 | 1020.5 | |
| 20260902073015 | 62 | 0.0 | 0.0 | 0.00 | 0.42 | 0.00 | 96 | 1020.7 | |
| 20260902072015 | 62 | 270 | 1.0 | 3.0 | 0.00 | 0.42 | 0.00 | 96 | 1020.6 |
| 20260902071015 | 62 | 0.0 | 1.0 | 0.00 | 0.42 | 0.00 | 96 | 1020.4 | |
| 20260902070015 | 62 | 0.0 | 2.0 | 0.00 | 0.42 | 0.00 | 96 | 1020.4 | |
| 20260902065015 | 62 | 0.0 | 1.0 | 0.00 | 0.42 | 0.00 | 96 | 1020.3 | |
| 20260902064037 | 62 | 270 | 1.0 | 3.0 | 0.00 | 0.42 | 0.00 | 96 | 1020.3 |
| 20260902063017 | 62 | 270 | 1.0 | 3.0 | 0.00 | 0.42 | 0.00 | 96 | 1020.3 |
| 20260902062017 | 62 | 225 | 1.0 | 2.0 | 0.00 | 0.42 | 0.00 | 96 | 1020.6 |
| 20260902061029 | 62 | 0.0 | 0.0 | 0.00 | 0.42 | 0.00 | 96 | 1020.4 | |
| 20260902060017 | 62 | 0.0 | 1.0 | 0.00 | 0.42 | 0.00 | 96 | 1020.5 | |
| 20260902055017 | 62 | 0.0 | 1.0 | 0.00 | 0.42 | 0.00 | 96 | 1020.4 | |
| 20260902054017 | 62 | 0.0 | 2.0 | 0.00 | 0.42 | 0.00 | 96 | 1020.3 | |
| 20260902053017 | 62 | 0.0 | 0.0 | 0.00 | 0.42 | 0.00 | 96 | 1020.3 | |
| 20260902052017 | 62 | 0.0 | 0.0 | 0.00 | 0.42 | 0.00 | 96 | 1020.1 | |
| 20260902051017 | 62 | 0.0 | 1.0 | 0.00 | 0.42 | 0.00 | 96 | 1020.1 | |
| 20260902050017 | 62 | 0.0 | 0.0 | 0.00 | 0.42 | 0.00 | 95 | 1020.0 | |
| 20260902045017 | 62 | 0.0 | 0.0 | 0.00 | 0.42 | 0.00 | 95 | 1019.9 | |
| 20260902044017 | 61 | 0.0 | 0.0 | 0.00 | 0.42 | 0.00 | 95 | 1019.8 | |
| 20260902043017 | 61 | 0.0 | 1.0 | 0.00 | 0.42 | 0.00 | 95 | 1019.7 | |
| 20260902042017 | 61 | 0.0 | 1.0 | 0.00 | 0.42 | 0.00 | 95 | 1019.7 | |
| 20260902041017 | 62 | 0.0 | 0.0 | 0.00 | 0.42 | 0.00 | 95 | 1019.4 | |
| 20260902040037 | 62 | 0.0 | 1.0 | 0.00 | 0.42 | 0.42 | 95 | 1019.1 | |
| 20260902035015 | 62 | 0.0 | 0.0 | 0.00 | 0.42 | 0.42 | 95 | 1018.9 | |
| 20260902034015 | 62 | 0.0 | 0.0 | 0.00 | 0.42 | 0.42 | 95 | 1018.9 | |
| 20260902033015 | 62 | 0.0 | 0.0 | 0.00 | 0.42 | 0.42 | 95 | 1018.7 | |
| 20260902032015 | 62 | 0.0 | 1.0 | 0.00 | 0.42 | 0.42 | 95 | 1019.0 | |
| 20260902031015 | 62 | 0.0 | 0.0 | 0.00 | 0.42 | 0.42 | 95 | 1018.9 | |
| 20260902030015 | 62 | 0.0 | 0.0 | 0.00 | 0.42 | 0.42 | 95 | 1018.8 | |
| 20260902025016 | 62 | 0.0 | 1.0 | 0.00 | 0.42 | 0.42 | 95 | 1019.0 | |
| 20260902024015 | 62 | 0.0 | 2.0 | 0.00 | 0.42 | 0.42 | 95 | 1019.2 | |
| 20260902023015 | 62 | 0.0 | 1.0 | 0.00 | 0.42 | 0.42 | 95 | 1019.2 | |
| 20260902022015 | 62 | 0.0 | 0.0 | 0.00 | 0.42 | 0.42 | 95 | 1019.1 | |
| 20260902021015 | 62 | 0.0 | 0.0 | 0.00 | 0.42 | 0.42 | 95 | 1019.1 | |
| 20260902020035 | 62 | 0.0 | 0.0 | 0.00 | 0.42 | 0.42 | 95 | 1019.1 | |
| 20260902015015 | 63 | 0.0 | 0.0 | 0.00 | 0.42 | 0.42 | 95 | 1019.1 | |
| 20260902014017 | 63 | 0.0 | 0.0 | 0.00 | 0.42 | 0.42 | 95 | 1019.2 | |
| 20260902013017 | 63 | 0.0 | 0.0 | 0.00 | 0.42 | 0.42 | 95 | 1018.9 |